Baudette, MN

4:51 AM CDT on July 22, 2017 (GMT -0500)
Baudette International

Weather History for KBDE - September, 2012

Change the Weather History Date:

Thursday, September 20, 2012

  Actual Average Record
Temperature  
Mean Temperature 52 °F -  
Max Temperature 61 °F 64 °F 85 °F (1970)
Min Temperature 41 °F 42 °F 18 °F (1956)
Degree Days  
Heating Degree Days 14    
Growing Degree Days 2 (Base 50)    
Moisture  
Dew Point 41 °F    
Average Humidity 76    
Maximum Humidity 97    
Minimum Humidity 36    
Precipitation  
Precipitation 0.13 in - - ()
Sea Level Pressure  
Sea Level Pressure 29.81 in    
Wind  
Wind Speed 12 mph (NW)    
Max Wind Speed 21 mph    
Max Gust Speed 36 mph    
Visibility 9 miles    
Events Rain    
Averages and records for this station are not official NWS values.
T = Trace of Precipitation, MM = Missing Value Source: NWS Daily Summary

Daily Weather History Graph

Daily Weather History Graph

Search for Another Location

Airport or City:

Trip Planner

Search our weather history database for the weather conditions in past years. The results will help you decide how hot, cold, wet, or windy it might be!

Date:

Astronomy

Sep. 20, 2012 Rise Set
Actual Time 7:02 AM CDT 7:19 PM CDT
Civil Twilight 6:31 AM CDT 7:50 PM CDT
Nautical Twilight 5:54 AM CDT 8:27 PM CDT
Astronomical Twilight 5:15 AM CDT 9:06 PM CDT
Moon 12:51 PM CDT (9/20) 9:51 PM CDT (9/20)
Length of Visible Light 13h 19m
Length of Day
12h 16m
Waxing Crescent, 27% of the Moon is Illuminated
Sep 20
Waxing Crescent
Sep 22
First Quarter
Sep 29
Full
Oct 8
Last Quarter
Oct 15
New

Hourly Weather History & Observations

Time (CDT) Temp. Windchill Dew Point Humidity Pressure Visibility Wind Dir Wind Speed Gust Speed Precip Events Conditions
12:01 AM 50.0 °F - 46.4 °F 87% 29.73 in 10.0 mi WNW 11.5 mph 21.9 mph N/A   Overcast
12:20 AM 48.2 °F - 46.4 °F 93% 29.74 in 10.0 mi NW 9.2 mph - N/A   Overcast
12:53 AM 48.0 °F - 46.0 °F 93% 29.75 in 4.0 mi NW 10.4 mph - 0.02 in Rain Light Rain
1:40 AM 48.2 °F - 44.6 °F 87% 29.74 in 10.0 mi NW 15.0 mph 24.2 mph 0.00 in   Overcast
1:53 AM 48.9 °F - 45.0 °F 86% 29.76 in 10.0 mi NW 16.1 mph 26.5 mph 0.00 in   Overcast
2:53 AM 48.9 °F - 44.1 °F 83% 29.77 in 10.0 mi NW 19.6 mph 25.3 mph N/A   Overcast
3:53 AM 48.9 °F - 43.0 °F 80% 29.78 in 10.0 mi NW 20.7 mph 27.6 mph N/A   Overcast
4:53 AM 48.0 °F - 42.1 °F 80% 29.79 in 10.0 mi NW 17.3 mph 27.6 mph N/A   Overcast
5:43 AM 48.2 °F - 39.2 °F 71% 29.79 in 10.0 mi NNW 19.6 mph 25.3 mph N/A   Scattered Clouds
5:53 AM 48.0 °F - 39.9 °F 74% 29.81 in 10.0 mi NNW 18.4 mph 25.3 mph N/A   Scattered Clouds
6:53 AM 48.0 °F - 37.9 °F 68% 29.83 in 10.0 mi NNW 17.3 mph 25.3 mph N/A   Partly Cloudy
7:53 AM 46.9 °F - 39.0 °F 74% 29.85 in 10.0 mi NW 9.2 mph 19.6 mph N/A   Partly Cloudy
8:53 AM 46.9 °F - 41.0 °F 80% 29.85 in 10.0 mi WNW 5.8 mph - N/A   Overcast
9:53 AM 48.9 °F - 42.1 °F 77% 29.86 in 10.0 mi WNW 6.9 mph - N/A   Overcast
10:53 AM 52.0 °F - 39.0 °F 61% 29.86 in 10.0 mi WNW 10.4 mph 16.1 mph N/A   Partly Cloudy
11:53 AM 55.9 °F - 39.0 °F 53% 29.85 in 10.0 mi NNW 12.7 mph 21.9 mph N/A   Clear
12:53 PM 57.0 °F - 35.1 °F 44% 29.83 in 10.0 mi NW 13.8 mph 21.9 mph N/A   Scattered Clouds
1:53 PM 55.0 °F - 36.0 °F 49% 29.81 in 10.0 mi NW 11.5 mph 21.9 mph 0.00 in Rain Light Rain
2:53 PM 55.0 °F - 36.0 °F 49% 29.81 in 10.0 mi NNW 10.4 mph - 0.01 in Rain Light Rain
3:53 PM 60.1 °F - 33.1 °F 36% 29.79 in 10.0 mi NW 11.5 mph 17.3 mph N/A   Overcast
4:53 PM 50.0 °F - 42.1 °F 74% 29.82 in 10.0 mi NW 9.2 mph - 0.01 in   Overcast
5:53 PM 52.0 °F - 43.0 °F 71% 29.81 in 10.0 mi ENE 5.8 mph - N/A   Mostly Cloudy
6:38 PM 44.6 °F 38.8 °F 39.2 °F 81% 29.82 in 1.8 mi North 11.5 mph 35.7 mph 0.07 in Rain Rain
6:42 PM 44.6 °F 39.7 °F 41.0 °F 87% 29.82 in 3.0 mi North 9.2 mph 19.6 mph 0.07 in Rain Light Rain
6:53 PM 45.0 °F 40.1 °F 42.1 °F 90% 29.85 in 9.0 mi NNW 9.2 mph - 0.08 in Rain Light Rain
7:53 PM 45.0 °F - 43.0 °F 93% 29.85 in 10.0 mi Calm Calm - 0.01 in   Overcast
8:53 PM 43.0 °F 40.3 °F 42.1 °F 97% 29.84 in 10.0 mi SW 4.6 mph - N/A   Overcast
9:53 PM 44.1 °F 42.5 °F 41.0 °F 89% 29.83 in 10.0 mi West 3.5 mph - N/A   Partly Cloudy
10:53 PM 43.0 °F 41.3 °F 39.9 °F 89% 29.83 in 10.0 mi West 3.5 mph - N/A   Partly Cloudy
11:53 PM 41.0 °F 39.0 °F 39.0 °F 93% 29.83 in 10.0 mi West 3.5 mph - N/A   Clear